This demonstration page uses our WeatherBlox Daily Observations layout. Learn more.

Left ArrowRight Arrow

38.88101, -77.10428

Hourly Observations for May 17, 2020

Temp ( °F °C ) Dew Point ( °F °C ) Humidity (%) Winds ( mph kmh ) Pressure ( in mb ) Visibility ( mi km ) Precip ( " mm )
12:52 am 00:52 Partly Cloudy 64 17.8 57 13.9 78 78 SSE 7 11 30.15 1021 10 16.0934 0 0
1:52 am 01:52 Partly Cloudy 63 17.2 56 13.3 78 78 SSE 3 6 30.15 1021 10 16.0934 0 0
2:52 am 02:52 Clear 62 16.7 54 12.2 75 75 Calm 30.15 1021 10 16.0934 0 0
3:52 am 03:52 Partly Cloudy 61 16.1 54 12.2 78 78 ENE 6 9 30.15 1021 10 16.0934 0 0
4:52 am 04:52 Cloudy 61 16.1 54 12.2 78 78 ENE 8 13 30.14 1021 10 16.0934 0 0
5:52 am 05:52 Cloudy 62 16.7 54 12.2 75 75 NE 7 11 30.15 1021 10 16.0934 0 0
6:52 am 06:52 Cloudy 62 16.7 54 12.2 75 75 NE 9 15 30.17 1022 10 16.0934 0 0
7:52 am 07:52 Cloudy 62 16.7 54 12.2 75 75 NE 10 17 30.18 1022 10 16.0934 0 0
8:52 am 08:52 Cloudy 64 17.8 56 13.3 75 75 ENE 12 19 30.19 1022 10 16.0934 0 0
9:52 am 09:52 Cloudy 65 18.3 54 12.2 68 68 E 7 11 30.19 1022 10 16.0934 0 0
10:52 am 10:52 Cloudy 64 17.8 56 13.3 75 75 E 12 19 30.21 1023 10 16.0934 0 0
11:48 am 11:48 Cloudy 64 18 55 13 73 73 E 10 17 30.21 1023 10 16.0934 0 0
11:52 am 11:52 Cloudy 65 18.3 57 13.9 76 76 E 9 15 30.21 1023 10 16.0934 0 0
12:52 pm 12:52 Cloudy 66 18.9 57 13.9 73 73 E 13 20 30.2 1023 10 16.0934 0 0
1:52 pm 13:52 Cloudy 67 19.4 57 13.9 71 71 E 12 19 30.2 1023 10 16.0934 0 0
2:03 pm 14:03 Cloudy 67 19.4 57 13.9 71 71 E 13 20 30.2 1023 10 16.0934 0 0
2:30 pm 14:30 Cloudy 67 19.4 57 13.9 71 71 ESE 9 15 30.19 1022 10 16.0934 0 0
2:52 pm 14:52 Cloudy 67 19.4 57 13.9 71 71 ESE 9 15 30.18 1022 10 16.0934 0 0
3:40 pm 15:40 Cloudy 68 20 57 13.9 68 68 E 10 17 30.17 1022 10 16.0934 0 0
3:52 pm 15:52 Cloudy 68 20 57 13.9 68 68 ESE 12 19 30.16 1021 10 16.0934 0 0
4:52 pm 16:52 Cloudy 68 20 58 14.4 70 70 E 8 13 30.14 1021 10 16.0934 0 0
5:10 pm 17:10 Cloudy 68 20 58 14.4 70 70 E 7 11 30.14 1021 10 16.0934 0 0
5:40 pm 17:40 Cloudy 68 20 57 13.9 68 68 ENE 9 15 30.14 1021 10 16.0934 0 0
5:52 pm 17:52 Cloudy 68 20 56 13.3 65 65 E 8 13 30.13 1020 10 16.0934 0 0
6:52 pm 18:52 Cloudy 67 19.4 56 13.3 68 68 E 9 15 30.13 1020 10 16.0934 0 0
7:52 pm 19:52 Cloudy 66 18.9 55 12.8 68 68 E 10 17 30.13 1020 10 16.0934 0 0
8:52 pm 20:52 Cloudy 64 17.8 54 12.2 70 70 ENE 8 13 30.13 1020 10 16.0934 0 0
9:52 pm 21:52 Mostly Cloudy 64 17.8 53 11.7 68 68 E 7 11 30.14 1021 10 16.0934 0 0
10:39 pm 22:39 Cloudy 63 17.2 52 11.1 68 68 ENE 9 15 30.13 1020 10 16.0934 0 0
10:52 pm 22:52 Cloudy 63 17.2 52 11.1 68 68 E 9 15 30.13 1020 10 16.0934 0 0
11:52 pm 23:52 Cloudy 61 16.1 51 10.6 70 70 ENE 9 15 30.11 1020 10 16.0934 0 0

Powered by AerisWeather